Location: Kuffner-Sternwarte
(48.2130°N, 16.2960°E)
Time: 01:56:02
(UTC+01:00)

COROT - Visible Passes

Search period start: 23 January 2019 00:00
Search period end: 02 February 2019 00:00
Orbit: 602 x 887 km, 90.0° (Epoch: 21 January)

Date Brightness Start Highest point End Pass type
(mag) Time Alt. Az. Time Alt. Az. Time Alt. Az.
23 Jan 6.9 04:21:25 10° N 04:27:08 54° E 04:32:40 10° SSE visible
23 Jan 7.1 06:01:34 10° NNW 06:06:20 27° WNW 06:10:59 10° SW visible
23 Jan 7.0 17:16:19 10° SSW 17:21:20 54° W 17:26:47 10° N visible
24 Jan 8.1 03:38:49 10° NNE 03:43:43 27° E 03:48:28 10° SE visible
24 Jan 6.3 05:17:58 10° N 05:23:35 52° W 05:29:02 10° SSW visible
24 Jan 8.9 18:14:53 10° WSW 18:18:27 18° WNW 18:22:10 10° NNW visible
25 Jan 9.0 02:57:11 10° NE 03:00:01 14° ENE 03:02:47 10° E visible
25 Jan 6.3 04:34:44 10° N 04:40:35 79° E 04:46:12 10° S visible
25 Jan 7.5 06:15:33 10° NNW 06:19:25 19° WNW 06:23:14 10° WSW visible
25 Jan 7.8 17:30:01 10° SSW 17:34:51 37° W 17:40:01 10° NNW visible
26 Jan 7.4 03:51:54 10° NNE 03:57:18 39° E 04:02:31 10° SSE visible
26 Jan 6.7 05:31:35 10° NNW 05:36:49 36° WNW 05:41:52 10° SW visible
26 Jan 9.1 18:30:00 10° W 18:32:12 12° WNW 18:34:27 10° NW visible
27 Jan 8.5 03:09:37 10° NNE 03:13:45 20° ENE 03:17:46 10° ESE visible
27 Jan 6.1 04:48:11 10° N 04:53:58 72° W 04:59:28 10° SSW visible
27 Jan 7.8 06:30:03 10° NW 06:32:26 13° WNW 06:34:20 11° W visible
27 Jan 8.5 17:44:02 10° SW 17:48:27 26° WNW 17:53:05 10° NNW visible
28 Jan 6.9 04:05:07 10° N 04:17:35 - S 04:09:48 50° NE visible
28 Jan 7.2 05:45:23 10° NNW 05:49:29 25° WNW 05:49:29 25° WNW visible
29 Jan 8.2 03:22:30 10° NNE 03:25:44 24° NE 03:25:44 24° NE visible
29 Jan 6.9 05:01:43 10° N 05:05:28 36° NNW 05:05:28 36° NNW visible
29 Jan 8.9 17:58:28 10° WSW 18:02:07 18° WNW 18:05:54 10° NNW visible
30 Jan 9.0 02:40:48 10° NE 02:41:57 12° NE 02:41:57 12° NE visible
30 Jan 7.3 04:18:29 10° N 04:21:41 34° N 04:21:41 34° N visible
30 Jan 7.8 05:59:28 10° NNW 06:01:25 15° NW 06:01:25 15° NW visible
30 Jan 8.0 17:13:32 10° SSW 17:18:30 36° W 17:23:45 10° NNW visible
31 Jan 8.1 03:35:37 10° NNE 03:38:04 24° NNE 03:38:04 24° NNE visible
31 Jan 7.6 05:15:23 10° NNW 05:17:48 22° NNW 05:17:48 22° NNW visible
31 Jan 9.2 18:13:42 10° W 18:15:52 12° WNW 18:18:06 10° NW visible
01 Feb 8.8 02:53:18 10° NNE 02:54:31 14° NE 02:54:31 14° NE visible
01 Feb 7.7 04:31:57 10° N 04:34:16 25° N 04:34:16 25° N visible
01 Feb 8.6 17:27:37 10° SW 17:32:06 25° WNW 17:36:47 10° NNW visible
